Regional Weather Roundup
Issued by NWS

Home | Current Version | Previous Version | Text Only | Print | Product List | Glossary On
Versions: 1 2 3 4 5 6 7 8 9 10 11 12 13 14 15 16 17 18 19 20 21 22 23 24 25 26 27 28 29 30 31 32 33 34 35 36 37 38 39 40 41 42 43 44 45 46 47 48 49 50
000
ASUS43 KOAX 251310
RWRNE

WEATHER ROUNDUP FOR NEBRASKA
NATIONAL WEATHER SERVICE OMAHA NE
800 AM CDT MON MAY 25 2015

NOTES: SATELLITE DATA IS BEING USED TO AUGMENT CLOUD COVER ABOVE
       12000 FEET.
       "FAIR" INDICATES FEW OR NO CLOUDS BELOW 12,000 FEET WITH NO
       SIGNIFICANT WEATHER AND/OR OBSTRUCTIONS TO VISIBILITY.

  * THESE STATIONS DO NOT REPORT WEATHER SUCH AS RAIN...SNOW OR FOG.

NEZ001>004-019>022-054>056-251400-
NEBRASKA PANHANDLE

CITY           SKY/WX    TMP DP  RH WIND       PRES   REMARKS
SCOTTSBLUFF    LGT RAIN  50  48  93 W10       29.84R
ALLIANCE       CLOUDY    50  49  96 NW9       29.80S
CHADRON        CLOUDY    52  51  97 N12       29.82R
KIMBALL          N/A    N/A N/A N/A MISG        N/A
SIDNEY         LGT RAIN  49  48  97 NW12      29.85R FOG
$$

NEZ057>060-069>072-079>082-251400-
SOUTHWEST NEBRASKA

CITY           SKY/WX    TMP DP  RH WIND       PRES   REMARKS
NORTH PLATTE   CLOUDY    54  52  93 NW5       29.79S
IMPERIAL       CLOUDY    52  50  93 CALM      29.80R
LEXINGTON      PTSUNNY   56  55  94 S5        29.80R
MCCOOK         MOSUNNY   55  53  93 SW5       29.80R
OGALLALA       CLOUDY    52  51  97 W3        29.80S
$$

NEZ005>010-023>029-035>040-094-251400-
NORTH CENTRAL NEBRASKA

CITY           SKY/WX    TMP DP  RH WIND       PRES   REMARKS
VALENTINE      FOG       56  55  97 NE7       29.78S VSB 1/2
AINSWORTH      CLOUDY    57  57 100 NE5       29.77S FOG
BROKEN BOW     PTSUNNY   58  53  84 SW5       29.78R
O`NEILL        CLOUDY    58  58  99 E5        29.77R FOG
ORD            PTSUNNY   56  55  97 W6        29.77R
THEDFORD       DRIZZLE   54  52  95 W5        29.79R
$$

NEZ041-046>049-061>064-073>077-083>087-251400-
SOUTH CENTRAL NEBRASKA

CITY           SKY/WX    TMP DP  RH WIND       PRES   REMARKS
GRAND ISLAND   CLOUDY    56  53  90 SW7       29.79R
AURORA         CLOUDY    57  56  95 SW8       29.80R
HASTINGS       CLOUDY    56  52  86 W7        29.80S
HEBRON         CLOUDY    58  55  89 CALM      29.80R
HOLDREGE       MOSUNNY   56  53  89 CALM      29.79S
KEARNEY *      CLOUDY    54  50  87 SW8       29.80R
YORK           LGT RAIN  57  55  94 SW6       29.80R
$$

NEZ011>018-030>034-042>045-251400-
NORTHEAST NEBRASKA

CITY           SKY/WX    TMP DP  RH WIND       PRES   REMARKS
NORFOLK        FOG       57  57 100 SE5       29.77R VSB 1
ALBION         FOG       59  57  94 CALM      29.78R VSB 1/4
BLAIR          CLOUDY    62  59  89 S13       29.80S
COLUMBUS *     PTSUNNY   61  54  77 SW9       29.81R
FREMONT        PTSUNNY   64  60  87 S8        29.79S
TEKAMAH        LGT RAIN  64  61  90 S15       29.78R
WAYNE          CLOUDY    58  58  98 CALM      29.78R FOG
$$

NEZ050>053-065>068-078-088>093-251400-
SOUTHEAST NEBRASKA

CITY           SKY/WX    TMP DP  RH WIND       PRES   REMARKS
LINCOLN        CLOUDY    62  57  83 SE5       29.78F
OMAHA EPPLEY   CLOUDY    64  60  87 S13       29.81R
BEATRICE       CLOUDY    59  58  95 SW5       29.79R
FALLS CITY     LGT RAIN  61  58  90 SE14      29.80F
NEBRASKA CITY  CLOUDY    62  61  96 E7        29.77F
PLATTSMOUTH    CLOUDY    62  59  88 S12       29.81F
$$

NEZ044-045-051>053-067-251400-
OMAHA AREA

CITY           SKY/WX    TMP DP  RH WIND       PRES   REMARKS
OMAHA EPPLEY   CLOUDY    64  60  87 S13       29.81R
BLAIR          CLOUDY    62  59  89 S13       29.80S
FREMONT        PTSUNNY   64  60  87 S8        29.79S
MILLARD        PTSUNNY   65  60  84 S8        29.80F
OFFUTT AFB     PTSUNNY   64  61  88 S10       29.80F
PLATTSMOUTH    CLOUDY    62  59  88 S12       29.81F
WAHOO          FAIR      63  59  87 MISG      29.78F
$$



USA.gov is the U.S. government's official web portal to all federal, state and local government web resources and services.